Regional Weather Roundup
Issued by NWS

Home | Current Version | Previous Version | Graphics & Text | Print | Product List | Glossary On
Versions: 1 2 3 4 5 6 7 8 9 10 11 12 13 14 15 16 17 18 19 20 21 22 23 24 25 26 27 28 29 30 31 32 33 34 35 36 37 38 39 40 41 42 43 44 45 46 47 48 49 50
000
ASUS43 KDTX 301010
RWRMI
MICHIGAN HOURLY REGIONAL WEATHER ROUNDUP
NATIONAL WEATHER SERVICE DETROIT/PONTIAC MI
600 AM EDT TUE JUN 30 2015

NOTE: "FAIR" INDICATES FEW OR NO CLOUDS BELOW 12,000 FEET WITH NO
SIGNIFICANT WEATHER AND/OR OBSTRUCTION TO VISIBILITY.

MIZ047>049-052>055-059>063-066>070-074>076-081>083-301100-
SOUTHEAST LOWER MICHIGAN

CITY           SKY/WX    TMP DP  RH WIND       PRES   REMARKS
ADRIAN         CLOUDY    62  60  93 W3        29.80F
ALMA           CLOUDY    58  58  97 CALM      29.81S
ANN ARBOR      CLOUDY    62  61  96 CALM      29.80S FOG
BAD AXE        MOCLDY    51  50  95 CALM      29.82S
CARO           CLOUDY    55  55  97 CALM      29.81S
DETROIT CITY   CLOUDY    63  59  87 CALM      29.79F
DETROIT        CLOUDY    64  60  87 E3        29.79S FOG
FLINT          CLOUDY    63  58  83 E3        29.80S
GROSSE ILE       N/A     64  61  88 CALM      29.78R
HILLSDALE      MOCLDY    60  60 100 CALM      29.81S FOG
HOWELL         CLOUDY    61  60  95 CALM      29.80S

CITY           SKY/WX    TMP DP  RH WIND       PRES   REMARKS
JACKSON        CLOUDY    61  58  90 CALM      29.80S
LAMBERTVILLE   CLOUDY    63  60  89 CALM      29.80S FOG
LANSING        CLOUDY    61  58  90 CALM      29.80S
LAPEER         CLOUDY    59  56  90 CALM      29.81S
MONROE         CLOUDY    63  62  97 CALM      29.78S
MT. CLEMENS    CLOUDY    63  60  88 E6        29.78S
PONTIAC        CLOUDY    63  58  83 CALM      29.79S
PORT HOPE        N/A     57  55  93 CALM      29.80F
PORT HURON     CLOUDY    59  59 100 CALM      29.80F
TRI CITIES     CLOUDY    59  55  87 CALM      29.81S
MIDLAND        FAIR      53  52  97 CALM      29.80S
TROY           CLOUDY    65  60  84 E3        29.81S
SAGINAW HB     CLOUDY    57  57 100 CALM      29.80S
$$
MIZ043>046-050>051-056>058-064>065-071>073-077>080-301100-
SOUTHWEST LOWER MICHIGAN

CITY           SKY/WX    TMP DP  RH WIND       PRES   REMARKS
BATTLE CREEK   CLOUDY    62  58  86 SE5       29.80F
BENTON HARBOR  CLOUDY    62  60  93 S3        29.77S FOG
BIG RAPIDS     PTCLDY    55  52  90 CALM      29.79S FOG
COLDWATER      CLOUDY    60  59  97 CALM      29.80S
FREMONT        CLOUDY    59  58  96 CALM      29.78S
HOLLAND        MOCLDY    61  58  90 SE5       29.78F
GRAND RAPIDS   MOCLDY    58  56  93 E3        29.79F
IONIA          CLOUDY    57  57  97 CALM      29.79F
KALAMAZOO      MOCLDY    61  58  90 CALM      29.80S
LUDINGTON      LGT RAIN  62  59  90 CALM      29.78R
MARSHALL       MOCLDY    60  59  96 CALM      29.80S
MOUNT PLEASANT PTCLDY    53  52  96 CALM      29.80S FOG
MUSKEGON       CLOUDY    61  58  90 SE6       29.77F
SOUTH HAVEN    MOCLDY    60  58  92 CALM      29.77F
$$
MIZ016>042-301100-
NORTHERN LOWER MICHIGAN

CITY           SKY/WX    TMP DP  RH WIND       PRES   REMARKS
ALPENA         PTCLDY    54  51  90 CALM      29.81R
BEAVER ISLAND  CLOUDY    59  58  97 SW3       29.78F FOG
BELLAIRE       CLOUDY    60  57  89 CALM      29.79S
CADILLAC       MOCLDY    52  50  95 CALM      29.80S
CHARLEVOIX     CLOUDY    62  58  88 CALM      29.82R
FRANKFORT      DRIZZLE   65  58  77 E5        29.78R
GAYLORD        MOCLDY    58  57  97 CALM      29.81S
GRAYLING       PTCLDY    47  45  94 CALM      29.81S
HARBOR SPRINGS CLOUDY    61  56  85 CALM      29.79R
HOUGHTON LAKE  PTCLDY    51  50  96 CALM      29.81S
MANISTEE       CLOUDY    61  55  82 CALM      29.78S
OSCODA         CLEAR     53  52  97 CALM      29.80S
PELLSTON       CLOUDY    57  55  93 CALM      29.79S
ROGERS CITY    PTCLDY    60  56  84 S5        29.80S
TRAVERSE CITY  CLOUDY    61  58  90 CALM      29.78R
$$
MIZ007>008-015-301100-
EASTERN UPPER MICHIGAN

CITY           SKY/WX    TMP DP  RH WIND       PRES   REMARKS
KINROSS        CLOUDY    63  57  82 CALM      29.79S
MACKINAC ISLAN MOCLDY    59  54  84 CALM      29.79S
NEWBERRY       CLOUDY    58  58  99 SW3       29.78R FOG
S. S. MARIE    CLOUDY    60  55  83 CALM      29.79S
MUNISING         N/A     54  51  90 NW6       29.79R
$$
MIZ004>006-011>014-085-301100-
CENTRAL UPPER MICHIGAN

CITY           SKY/WX    TMP DP  RH WIND       PRES   REMARKS
MANISTIQUE     FOG       59  58  97 CALM      29.77S VSB 1/2
ESCANABA       CLOUDY    61  57  88 NW5       29.77R
MENOMINEE      CLOUDY    61  57  88 N7        29.77R
SAWYER-GWINN   FOG       50  49  96 N5        29.81R VSB 1/2
$$
MIZ001>003-009>011-084-301100-
WESTERN UPPER MICHIGAN

CITY           SKY/WX    TMP DP  RH WIND       PRES   REMARKS
IRON MOUNTAIN  CLOUDY    60  57  89 NW6       29.79R
HOUGHTON       LGT RAIN  49  46  90 N16G22    29.87R
COPPER HARBOR    N/A     47  44  90 N10       29.88R
IRONWOOD       CLOUDY    54  52  94 NE9       29.87R
$$

ABBREVIATIONS USED IN REMARKS
   TC - TEMPERATURE IN CELSIUS
  WCI - WIND CHILL INDEX
   HX - HEAT INDEX
  VSB - VISIBILITY




USA.gov is the U.S. government's official web portal to all federal, state and local government web resources and services.